[[{"header":{"parameterUnit":"m.s-1","parameterCategory":1,"la1":30.2991,"la2":30.254,"lo1":-89.0895,"lo2":-89.0444,"dy":0.0017,"dx":0.0017,"nx":28,"ny":28,"refTime":"2024-10-12T09:00:00:Z","depth":0,"parameterNumber":2,"parameterNumberName":"U-component_of_WINDS"},"data":[0,0,0,0,0,0,0,0,0,0,0,0,0,0,0,0,0,0,0,0,0,0,0,0,0,0,0,0,0,0,0,0,0,0,0,0,0,0,0,0,0,0,0,0,0,0,0,0,0,0,0,0,0,0,0,0,0,0,0.6768,0.6768,0,0.6785,0.6785,0.6785,0.6791,0.6791,0.6791,0.6791,0.6807,0.6807,0.6808,0,0,0,0,0,0,0,0,0,0,0,0,0,0.6736,0.6737,0.6768,0.6768,0.6768,0.6785,0.6785,0.6785,0.6791,0.6791,0.6791,0.6791,0.6807,0.6807,0.6808,0,0,0,0,0,0,0,0,0,0,0,0,0,0.6751,0.6737,0.6768,0.6773,0.6774,0.6785,0.6785,0.6786,0.6791,0.6791,0.6791,0.6791,0.6806,0.6807,0.6808,0.6815,0,0,0.681,0.681,0,0,0,0,0,0,0,0,0.6751,0.6753,0.6772,0.6773,0.6773,0.6786,0.678,0.6795,0.6791,0.6784,0.6791,0.6791,0.68,0.6801,0.6804,0.6815,0.6816,0.681,0.6811,0.6811,0.6811,0,0,0,0,0,0,0,0.675,0.6752,0.6775,0.6772,0.6773,0.6773,0.6776,0.6783,0.6792,0.6785,0.6786,0.6788,0.68,0.6804,0.6805,0.6816,0.681,0.6811,0.6811,0.6812,0.6831,0.6831,0,0,0,0,0,0,0.6748,0.6751,0.6774,0.6775,0.6762,0.6774,0.6776,0.6782,0.6792,0.6794,0.6788,0.6788,0.6803,0.6804,0.6805,0.6813,0.6811,0.6812,0.6812,0.6831,0.6831,0.6831,0,0,0,0,0,0,0.6747,0.675,0.6773,0.6763,0.6766,0.6775,0.6781,0.6782,0.6786,0.6794,0.6796,0.679,0.6803,0.6804,0.6812,0.6813,0.6812,0.6813,0.6831,0.6831,0.6831,0.6828,0,0,0,0,0,0,0.6746,0.675,0.6753,0.6763,0.6767,0.678,0.6781,0.6783,0.6787,0.6788,0.6797,0.6798,0.6803,0.6811,0.6813,0.6814,0.6813,0.6831,0.6831,0.6831,0.6828,0.6828,0.6828,0,0,0,0,0,0.6745,0.6752,0.6753,0.6756,0.6771,0.6781,0.6782,0.6788,0.6788,0.6791,0.6795,0.6798,0.6813,0.6811,0.6814,0.6815,0.683,0.6831,0.6831,0.6828,0.6828,0.6828,0,0,0,0,0,0,0.6742,0.6753,0.6755,0.6765,0.6772,0.6781,0.6786,0.6788,0.6794,0.6794,0.68,0.6802,0.6809,0.6813,0.6811,0.6821,0.6822,0.6822,0.6818,0.6819,0.6818,0.6817,0.6814,0,0,0,0,0,0.6742,0.6749,0.6759,0.6767,0.677,0.6777,0.6781,0.6785,0.6792,0.6794,0.68,0.6806,0.6811,0.6815,0.6821,0.6828,0.6829,0.683,0.683,0.683,0.6831,0.6833,0.6833,0.6831,0.6831,0.6831,0,0,0.6743,0.675,0.6755,0.6766,0.6772,0.6778,0.6779,0.6786,0.6791,0.6795,0.6802,0.6806,0.6813,0.682,0.6823,0.6823,0.6831,0.683,0.683,0.6831,0.6833,0.6833,0.6833,0.6832,0.6831,0.6831,0,0,0.6748,0.6755,0.6761,0.6766,0.6775,0.6779,0.678,0.6789,0.6792,0.6799,0.6802,0.6807,0.6817,0.6821,0.6825,0.6829,0.683,0.683,0.683,0.6832,0.6832,0.6832,0.6833,0.6833,0.6831,0.6831,0.6831,0,0.6748,0.6759,0.6764,0.6771,0.6775,0.6779,0.6785,0.6789,0.6799,0.6801,0.6801,0.6813,0.6818,0.6825,0.6825,0.6829,0.6829,0.6829,0.6832,0.6832,0.6832,0.6832,0.6833,0.683,0.683,0.683,0.683,0,0.6757,0.6764,0.6768,0.6777,0.6782,0.6788,0.6793,0.6797,0.6799,0.6803,0.6809,0.6815,0.6821,0.6823,0.6826,0.683,0.683,0.6831,0.6831,0.6832,0.6832,0.6833,0.683,0.683,0.683,0.683,0,0,0.6762,0.6772,0.6774,0.6777,0.6785,0.679,0.6795,0.6802,0.6804,0.681,0.6813,0.6821,0.6821,0.6825,0.6828,0.683,0.6831,0.6831,0.6831,0.683,0.6834,0.6833,0.6833,0.6832,0.6832,0.6832,0.6833,0,0.6767,0.6777,0.6782,0.6789,0.6795,0.6798,0.6802,0.6807,0.681,0.6814,0.6817,0.6822,0.6823,0.6825,0.6827,0.6831,0.6832,0.6831,0.6834,0.6835,0.6832,0.6833,0.6832,0.6833,0.6833,0.6833,0.6833,0,0.6775,0.678,0.6789,0.6794,0.6797,0.6801,0.6806,0.681,0.6815,0.6817,0.682,0.6822,0.6826,0.6826,0.6831,0.683,0.6832,0.6833,0.6834,0.6834,0.6834,0.6833,0.6834,0.6833,0.6834,0.6834,0.6834,0,0.6776,0.6785,0.6791,0.6794,0.6801,0.6803,0.6806,0.6811,0.6814,0.6818,0.6819,0.6824,0.6826,0.6829,0.6832,0.6832,0.6836,0.6836,0.6836,0.6836,0.6837,0.6837,0.6838,0.6839,0.6839,0.6839,0.6839,0,0.6781,0.6785,0.6791,0.6795,0.6799,0.6803,0.6807,0.681,0.6814,0.6817,0.682,0.6823,0.6827,0.6829,0.6832,0.6834,0.6836,0.6837,0.6837,0.6836,0.6836,0.6837,0.6837,0.6839,0.6839,0.6839,0.6839,0,0.6783,0.6787,0.6793,0.6799,0.68,0.6803,0.6808,0.681,0.6813,0.6817,0.6818,0.6822,0.6825,0.6829,0.6833,0.6834,0.6837,0.6838,0.6835,0.6836,0.6835,0.6835,0.6836,0.6836,0.6838,0.6838,0.6838,0,0.6786,0.6789,0.6795,0.6797,0.68,0.6804,0.6807,0.681,0.6812,0.6817,0.6819,0.6822,0.6825,0.683,0.6833,0.6836,0.6836,0.6836,0.6837,0.6835,0.6835,0.6835,0.6835,0.6836,0.6836,0.6836,0.6836,0,0.679,0.6791,0.6795,0.6799,0.6802,0.6806,0.6809,0.6811,0.6814,0.6817,0.682,0.6822,0.6826,0.6829,0.6832,0.6834,0.6835,0.6836,0.6836,0.6835,0.6833,0.6833,0.6834,0.6836,0.6836,0.6836,0.6836,0.6836,0.6792,0.6794,0.6798,0.6802,0.6804,0.6807,0.681,0.6812,0.6815,0.6819,0.682,0.6823,0.6826,0.683,0.6832,0.6833,0.6834,0.6834,0.6834,0.6834,0.6833,0.6833,0.6834,0.6834,0.6834,0.6834,0.6834,0,0.6795,0.6797,0.68,0.6805,0.6807,0.6808,0.6812,0.6813,0.6816,0.6819,0.6821,0.6824,0.6826,0.6829,0.6831,0.6832,0.6832,0.6832,0.6832,0.6832,0.6833,0.6833,0.6832,0.6832,0.6832,0.6832,0.6832,0.6832,0.6797,0.6801,0.6802,0.6807,0.6809,0.6812,0.6813,0.6815,0.6817,0.682,0.6822,0.6824,0.6826,0.6828,0.683,0.683,0.6831,0.683,0.6831,0.6832,0.6832,0.6832,0.6832,0.683,0.683,0.6829,0.6829,0.6829]},{"header":{"parameterUnit":"m.s-1","parameterCategory":1,"la1":30.2991,"la2":30.254,"lo1":-89.0895,"lo2":-89.0444,"dy":0.0017,"dx":0.0017,"nx":28,"ny":28,"refTime":"2024-10-12T09:00:00:Z","depth":0,"parameterNumber":3,"parameterNumberName":"V-component_of_WINDS"},"data":[0,0,0,0,0,0,0,0,0,0,0,0,0,0,0,0,0,0,0,0,0,0,0,0,0,0,0,0,0,0,0,0,0,0,0,0,0,0,0,0,0,0,0,0,0,0,0,0,0,0,0,0,0,0,0,0,0,0,2.5011,2.5011,0,2.4976,2.4975,2.4975,2.4923,2.4922,2.4921,2.492,2.4884,2.4883,2.4883,0,0,0,0,0,0,0,0,0,0,0,0,0,2.5033,2.5033,2.5012,2.5011,2.5011,2.4976,2.4975,2.4975,2.4923,2.4922,2.4921,2.492,2.4884,2.4883,2.4883,0,0,0,0,0,0,0,0,0,0,0,0,0,2.5013,2.5032,2.5012,2.4981,2.4978,2.4976,2.4975,2.4975,2.4924,2.4922,2.4921,2.492,2.4884,2.4883,2.4883,2.4909,0,0,2.4883,2.4882,0,0,0,0,0,0,0,0,2.5014,2.5012,2.4986,2.4983,2.4979,2.4953,2.4969,2.4953,2.4924,2.4944,2.492,2.4919,2.4908,2.4905,2.4902,2.4907,2.4906,2.4883,2.4882,2.4882,2.4882,0,0,0,0,0,0,0,2.5016,2.5013,2.4997,2.4985,2.4981,2.4968,2.4964,2.4966,2.4934,2.4942,2.4938,2.4935,2.4906,2.4902,2.49,2.4905,2.4883,2.4882,2.4882,2.4882,2.4927,2.4928,0,0,0,0,0,0,2.5022,2.5015,2.4998,2.4996,2.4994,2.4969,2.4964,2.4963,2.4934,2.4928,2.4936,2.4933,2.4903,2.4901,2.4899,2.4924,2.4882,2.4882,2.4882,2.4925,2.4927,2.4928,0,0,0,0,0,0,2.5022,2.5021,2.5,2.5005,2.5001,2.497,2.4969,2.4963,2.4959,2.4929,2.4923,2.4938,2.4902,2.4899,2.4906,2.4923,2.4882,2.4882,2.4924,2.4926,2.4928,2.4978,0,0,0,0,0,0,2.5023,2.5021,2.5031,2.5005,2.5001,2.5009,2.497,2.4963,2.4959,2.4954,2.493,2.4924,2.4901,2.4907,2.4906,2.4922,2.4882,2.4922,2.4925,2.4927,2.4974,2.4981,2.4987,0,0,0,0,0,2.5024,2.5047,2.5032,2.503,2.5013,2.501,2.5007,2.498,2.496,2.4969,2.495,2.4925,2.4921,2.4908,2.4907,2.4922,2.4921,2.4924,2.4927,2.4972,2.498,2.4987,0,0,0,0,0,0,2.5077,2.5044,2.5026,2.5042,2.5029,2.5001,2.5012,2.499,2.4982,2.4978,2.4944,2.4939,2.4949,2.4937,2.4922,2.4944,2.4917,2.492,2.4952,2.4959,2.4965,2.4967,2.4881,0,0,0,0,0,2.509,2.5091,2.5062,2.5078,2.5073,2.5044,2.5041,2.5021,2.5006,2.5,2.4981,2.4968,2.4963,2.4961,2.4955,2.4973,2.4965,2.4983,2.4989,2.4994,2.4997,2.5002,2.5009,2.4938,2.4938,2.4938,0,0,2.5118,2.51,2.5102,2.5088,2.5076,2.5076,2.5039,2.5042,2.5041,2.5001,2.5005,2.4991,2.4973,2.4985,2.4989,2.4975,2.5015,2.4998,2.5003,2.5002,2.5006,2.5013,2.5019,2.494,2.494,2.4939,0,0,2.5168,2.5156,2.5167,2.5155,2.5136,2.5116,2.5119,2.5094,2.5083,2.5087,2.5055,2.5054,2.5048,2.5035,2.5028,2.5072,2.5048,2.5071,2.5103,2.5109,2.5114,2.5119,2.5132,2.5137,2.5074,2.5074,2.5074,0,2.5205,2.5204,2.5175,2.5179,2.5173,2.5136,2.5145,2.5135,2.5116,2.5112,2.5096,2.5086,2.5071,2.5078,2.5088,2.5085,2.5085,2.5073,2.5116,2.5121,2.5124,2.5136,2.5142,2.5077,2.5076,2.5076,2.5076,0,2.5249,2.5249,2.526,2.5242,2.5237,2.5244,2.5215,2.5213,2.5193,2.5174,2.5178,2.5159,2.5148,2.5148,2.5129,2.5152,2.5143,2.5123,2.5094,2.5134,2.5145,2.5149,2.5081,2.508,2.5079,2.5078,0,0,2.5331,2.5295,2.53,2.5289,2.5266,2.5265,2.5269,2.5258,2.5256,2.5244,2.5245,2.524,2.522,2.5212,2.5191,2.5196,2.5228,2.5174,2.5173,2.5183,2.5249,2.5263,2.5269,2.5213,2.5214,2.5214,2.5249,0,2.5375,2.5381,2.5353,2.5366,2.5364,2.5328,2.5332,2.5317,2.53,2.5295,2.5275,2.5271,2.5246,2.5241,2.5245,2.5224,2.5241,2.5221,2.5212,2.5212,2.5216,2.5275,2.529,2.5324,2.5254,2.5254,2.5255,0,2.5426,2.5416,2.5428,2.5401,2.5399,2.5403,2.5389,2.5386,2.5368,2.5354,2.5345,2.532,2.5321,2.5295,2.5295,2.5282,2.5277,2.5266,2.5266,2.5263,2.5235,2.5271,2.5335,2.5339,2.5262,2.5261,2.5261,0,2.5482,2.5471,2.5476,2.5469,2.5439,2.5442,2.5429,2.5409,2.5403,2.5391,2.5387,2.5375,2.5368,2.5359,2.5331,2.5316,2.5333,2.5306,2.532,2.5321,2.5324,2.5324,2.5386,2.5325,2.5325,2.5325,2.5324,0,2.5532,2.554,2.55,2.5503,2.551,2.5479,2.5487,2.5471,2.5453,2.5451,2.542,2.5419,2.5383,2.5378,2.5356,2.5357,2.5355,2.5343,2.5337,2.5345,2.5346,2.5339,2.5335,2.5326,2.5326,2.5325,2.5325,0,2.5595,2.5569,2.5571,2.5542,2.5535,2.5541,2.5515,2.5516,2.5496,2.5494,2.5492,2.5461,2.5452,2.5424,2.5409,2.5394,2.5401,2.5391,2.5407,2.5403,2.5418,2.5416,2.5476,2.5481,2.5419,2.542,2.542,0,2.5628,2.5633,2.5604,2.56,2.5589,2.5584,2.5577,2.5546,2.554,2.5518,2.5521,2.551,2.55,2.5487,2.5462,2.545,2.5438,2.546,2.5435,2.5442,2.5435,2.5434,2.5433,2.5464,2.5465,2.5466,2.5466,0,2.5688,2.5674,2.5666,2.5653,2.5646,2.5634,2.562,2.5619,2.5584,2.5579,2.5569,2.5561,2.5545,2.5533,2.5516,2.5502,2.5478,2.5474,2.5476,2.5484,2.5492,2.5485,2.5419,2.5473,2.5472,2.5472,2.5471,2.5471,2.5734,2.5736,2.5716,2.5707,2.5693,2.5681,2.5679,2.5659,2.5651,2.5635,2.5617,2.5609,2.5588,2.5563,2.555,2.5543,2.553,2.5534,2.5534,2.5535,2.5538,2.5495,2.554,2.554,2.554,2.5539,2.5539,0,2.5791,2.5775,2.5768,2.5749,2.5742,2.572,2.5704,2.5698,2.5692,2.5675,2.5665,2.5653,2.5641,2.5615,2.56,2.5599,2.5587,2.5596,2.5595,2.5591,2.5552,2.555,2.5606,2.5606,2.5606,2.5606,2.5606,2.5606,2.5819,2.582,2.5804,2.5797,2.5782,2.5774,2.5766,2.5753,2.5739,2.5727,2.5717,2.57,2.5679,2.5662,2.565,2.5642,2.5637,2.5649,2.5638,2.5601,2.5595,2.5588,2.5587,2.5649,2.5649,2.5678,2.5678,2.5678]}]]